Tracking 18840 objects as of 20-November-2017
HD Live streaming from Space Station
objects crossing your sky now

SCOUT X-1 DEB

Track SCOUT X-1 DEB now!
10-day predictions


NORAD ID: 3927
Int'l Code: 1961-004F
Perigee: 553.5 km
Apogee: 1,263.8 km
Inclination: 38.9 °
Period: 103.0 minutes
Semi major axis: 7279 km
RCS: 0.0548 m2 (small)
Launch date: February 16, 1961
Source: United States (US)
Launch site: WALLOPS ISLAND (WLPIS)

Note: This is SATELLITE DEBRIS
aabbcc
Your satellite tracking list
Your tracking list is empty




NASA's NSSDC Master Catalog

Two Line Element Set (TLE):
1 03927U 61004F   17320.01045927  .00003969  00000-0  10097-2 0  9999
2 03927  38.9296 200.6919 0487867 224.0655 132.0211 13.97774141684665
Source of the keplerian elements: AFSPC